Wind_Speed
6 6 6 6 6 6 6 6 7 7 7 7 7 7 8 8 9 9 9 8 9 9 10 11 11 11 12 13 14 14 13 13 14 14 14 15 14 14 15 15 16 16 17
9 8 8 8 7 7 8 8 8 8 7 7 7 8 8 9 9 9 9 10 11 11 11 12 12 13 13 13 14 13 13 14 14 14 15 15 15 15 15 16 16 17 17
10 10 9 9 9 9 9 9 9 9 9 8 8 8 9 9 10 10 10 11 12 13 13 13 13 13 13 13 14 14 14 14 15 15 15 15 15 16 17 17 17 17 17
13 12 12 12 12 11 11 11 11 11 10 10 9 10 10 10 10 10 11 12 13 13 13 13 13 13 14 15 15 15 15 15 15 16 16 16 17 18 18 19 18 18 17
14 14 14 14 14 13 13 13 13 12 12 11 11 11 11 11 11 12 12 13 14 14 14 14 15 15 15 16 16 16 16 17 17 17 17 18 18 19 19 20 19 19 19
16 15 15 15 14 14 15 14 14 13 13 13 12 12 12 13 14 14 14 15 15 15 15 15 16 16 16 17 17 17 17 18 18 19 19 19 20 20 21 21 21 20 20
17 17 16 15 15 15 16 16 16 16 15 14 14 15 15 15 15 16 16 17 17 17 17 17 18 17 18 19 19 19 19 20 19 19 20 20 21 21 22 22 22 22 22
19 19 18 18 17 17 17 17 17 17 18 18 18 18 18 18 18 18 18 18 18 18 19 19 19 19 20 20 21 21 20 21 22 21 22 22 23 23 23 23 23 23 23
21 21 20 20 20 19 19 19 18 18 19 19 19 19 20 19 19 19 20 20 19 19 19 19 19 20 21 21 22 22 22 22 23 23 23 23 24 24 24 24 25 24 24
23 23 23 23 22 22 22 21 21 21 21 20 20 20 21 20 20 20 21 21 20 20 20 21 21 21 22 23 23 23 24 24 24 24 24 24 25 25 25 25 25 25 24
26 26 26 26 25 25 24 24 24 24 24 23 23 23 23 23 21 21 21 21 22 22 22 22 23 23 24 25 25 25 25 26 26 26 26 26 27 27 27 26 26 26 25
29 28 28 28 27 27 26 26 26 26 26 26 25 25 24 24 23 22 22 23 23 23 24 25 25 25 26 26 26 26 26 27 27 28 28 28 28 28 28 27 27 27 26
31 30 30 30 29 28 28 28 27 28 28 27 27 27 26 26 25 24 24 24 25 26 27 28 27 27 27 27 27 28 28 28 29 29 29 30 30 29 28 28 28 28 27
33 32 32 31 30 30 30 30 29 29 29 29 29 29 28 28 27 26 27 27 28 28 28 29 29 29 30 29 29 30 30 30 31 31 31 31 30 29 29 29 29 28 28
36 34 33 32 32 31 31 30 30 30 30 30 30 30 30 29 29 29 29 29 30 30 30 30 30 31 31 31 31 31 32 32 32 32 32 32 31 31 30 30 30 30 29
37 35 35 34 34 33 32 32 32 31 31 31 31 31 31 30 30 31 31 31 31 31 32 32 32 32 32 32 32 32 32 33 33 33 33 33 33 32 32 31 30 30 29
37 36 36 36 36 35 34 34 34 33 33 32 32 32 32 32 32 32 33 33 32 32 33 33 33 34 33 33 33 33 33 34 34 34 34 33 33 33 33 31 31 30 30
37 36 36 37 37 36 36 36 36 35 35 34 34 33 33 33 34 34 34 34 33 33 34 34 34 35 35 34 34 35 35 35 35 34 34 33 33 32 32 31 31 31 31
38 37 38 38 38 37 37 37 37 37 37 36 35 35 35 35 36 36 36 35 35 35 35 35 36 36 36 36 36 36 36 35 35 34 34 33 32 32 31 31 31 31 31
38 38 38 37 37 38 38 37 37 36 36 36 36 35 35 35 36 36 37 37 36 35 35 35 36 37 37 38 37 37 36 36 35 35 34 33 32 31 31 31 31 30 30
38 38 38 37 36 36 37 37 37 37 36 36 37 36 36 36 36 36 36 36 36 35 35 35 36 36 37 38 38 37 36 35 35 34 33 32 32 31 31 31 30 29 29
35 36 36 37 37 36 36 37 36 36 36 37 36 36 35 36 36 37 36 36 36 37 36 36 36 36 37 38 38 37 36 35 34 33 32 31 31 30 30 30 29 29 28
34 34 36 36 36 37 37 37 36 36 37 36 36 35 35 35 36 37 37 36 36 36 35 36 36 37 37 37 37 36 35 34 33 32 32 31 31 30 30 29 28 28 28
31 32 33 34 34 35 36 36 36 36 35 35 35 35 34 35 35 35 35 36 36 36 36 37 36 36 36 35 35 34 33 33 32 32 31 31 30 29 29 28 28 28 28
31 31 32 32 33 34 35 35 34 34 34 34 34 34 35 35 35 35 35 36 36 36 36 36 35 35 34 34 33 32 31 31 31 31 30 29 28 28 27 26 27 27 27
29 29 30 31 31 32 33 32 33 32 32 33 33 34 35 34 35 35 35 36 36 35 35 34 33 33 33 32 31 30 30 30 30 29 29 28 28 27 27 26 26 26 25
Wind_Direction
300 302 300 302 304 305 309 309 311 318 318 318 315 318 322 323 323 321 321 320 315 309 305 307 310 313 312 313 313 312 312 310 309 308 306 306 305 305 303 302 302 301 302
290 293 292 295 297 297 300 303 306 305 316 314 310 312 318 318 317 317 318 314 312 311 309 310 312 314 312 312 313 312 312 311 310 309 307 309 308 305 304 305 306 304 303
282 288 289 290 291 291 292 295 299 303 311 316 309 307 311 313 313 314 315 314 314 313 310 309 309 313 313 315 317 318 317 313 309 307 307 309 309 307 306 306 306 304 302
274 278 282 285 287 288 287 288 292 295 300 305 308 306 307 309 312 315 314 312 312 312 311 309 308 311 310 310 313 313 314 312 307 305 306 306 308 309 307 307 305 303 302
269 273 279 284 288 288 288 291 293 292 295 296 299 304 307 306 308 310 312 310 309 310 308 307 307 308 306 306 309 310 311 310 308 307 306 304 304 307 308 308 307 305 303
267 270 275 279 282 284 286 287 288 290 293 291 293 297 302 306 307 307 309 310 312 311 308 306 304 303 304 307 308 308 308 309 310 308 306 304 304 304 305 306 305 304 304
264 266 269 273 276 279 283 284 285 285 287 287 288 291 294 299 303 306 307 309 310 309 307 305 303 304 305 306 306 306 307 307 308 307 306 305 304 303 303 303 303 301 301
262 265 268 271 273 276 279 282 282 282 284 285 285 290 292 294 298 301 303 305 308 307 305 304 305 306 307 306 305 305 305 305 305 304 304 303 302 301 302 303 302 301 300
262 265 267 269 270 272 274 278 279 281 283 284 285 288 291 292 295 299 300 302 304 306 306 306 308 308 308 305 304 303 302 302 302 303 302 302 302 301 301 301 301 301 299
263 264 265 267 267 268 271 272 275 279 282 283 285 288 290 291 292 293 295 298 300 301 302 304 305 306 307 305 303 302 301 301 300 300 300 301 301 300 300 300 300 298 297
260 262 264 265 266 268 269 272 274 276 279 282 283 287 289 291 291 291 292 295 297 297 298 301 302 303 304 303 302 301 301 300 298 298 297 298 298 299 299 299 299 298 297
259 261 263 265 266 267 269 272 274 275 276 281 283 286 286 288 290 290 291 292 294 295 295 297 298 299 300 301 300 300 299 299 298 298 297 296 297 297 297 297 297 296 295
259 260 261 264 266 268 269 271 273 275 278 279 282 285 287 286 287 287 288 289 292 293 294 296 296 296 297 298 300 299 299 299 299 298 298 297 296 296 296 296 297 295 294
259 260 262 264 266 267 269 271 273 275 278 279 279 282 284 285 284 285 285 286 288 290 291 293 294 294 296 298 298 298 297 298 299 297 296 296 296 294 294 295 295 294 294
257 258 261 263 264 265 267 269 272 273 276 279 279 279 280 282 282 283 285 286 287 288 290 291 291 292 294 296 297 297 297 297 298 296 295 295 295 294 294 294 294 294 294
255 257 259 261 262 264 266 268 269 272 274 275 276 278 279 278 278 281 283 285 286 286 288 290 291 291 293 294 295 295 296 296 297 297 295 293 293 294 294 293 293 294 294
254 255 257 259 261 263 266 267 268 270 272 273 274 276 277 277 279 280 281 283 285 286 287 289 291 291 292 293 294 293 294 294 295 295 295 293 293 293 292 291 291 292 292
256 256 258 259 260 263 265 266 267 268 269 271 274 276 278 279 279 279 280 281 284 286 286 287 289 291 292 292 292 292 293 293 294 293 293 292 293 293 292 292 291 291 291
256 256 257 258 260 263 265 266 266 267 268 270 273 275 276 277 277 279 281 281 282 283 284 285 287 289 290 290 290 291 292 292 292 292 291 291 293 293 292 291 291 291 292
257 256 258 260 261 263 265 265 266 267 268 270 272 273 274 275 276 278 278 279 279 281 283 285 287 288 290 290 291 291 291 291 291 291 289 289 290 290 290 289 289 289 290
258 258 259 260 262 263 264 265 267 268 268 270 271 272 274 274 276 278 278 278 280 281 283 285 287 288 290 291 291 291 291 291 290 290 288 287 288 288 288 289 289 289 289
259 258 260 262 263 263 265 265 267 267 268 270 270 271 272 274 276 278 279 280 281 283 283 284 285 287 289 290 290 289 289 289 289 290 288 288 287 287 287 287 288 289 290
259 258 258 260 263 264 266 266 267 268 270 270 271 271 272 274 276 277 278 281 283 284 284 284 285 287 289 289 288 288 288 289 289 289 289 288 287 286 286 286 286 288 290
261 261 261 262 263 265 266 266 266 269 271 272 272 273 275 277 277 277 278 281 284 283 284 286 286 286 286 286 286 287 288 288 289 289 288 286 284 283 284 285 287 289 290
261 262 262 262 263 266 268 267 268 270 272 272 273 274 275 276 277 277 279 281 283 283 285 285 285 285 284 285 287 287 287 288 288 287 286 284 282 282 283 285 287 288 289
265 266 267 268 269 270 270 270 270 271 271 272 274 275 276 275 276 278 280 282 283 283 284 283 283 283 282 284 285 287 288 288 287 286 285 283 282 283 284 285 286 287 287
Height
5896 5896 5895 5894 5894 5893 5892 5891 5890 5888 5887 5886 5885 5884 5883 5881 5880 5879 5877 5876 5875 5874 5873 5872 5870 5869 5867 5865 5864 5862 5860 5858 5857 5855 5853 5851 5849 5847 5845 5843 5841 5839 5837
5895 5894 5894 5893 5892 5891 5890 5889 5888 5887 5885 5884 5883 5882 5881 5880 5878 5877 5876 5874 5873 5872 5871 5869 5868 5866 5864 5863 5861 5859 5857 5855 5854 5852 5850 5848 5846 5844 5842 5839 5837 5835 5833
5893 5892 5892 5891 5890 5889 5889 5888 5886 5885 5884 5882 5881 5880 5879 5878 5876 5875 5874 5872 5871 5869 5868 5867 5865 5863 5862 5860 5858 5856 5854 5852 5851 5849 5847 5845 5843 5840 5838 5836 5834 5831 5829
5890 5890 5889 5888 5888 5887 5886 5885 5884 5883 5882 5881 5879 5878 5877 5876 5874 5873 5871 5870 5868 5866 5865 5864 5862 5861 5859 5857 5855 5853 5851 5849 5847 5845 5843 5841 5839 5836 5834 5832 5829 5827 5825
5887 5887 5886 5886 5885 5884 5883 5882 5881 5880 5879 5878 5877 5876 5874 5873 5872 5870 5869 5867 5865 5863 5861 5860 5859 5857 5855 5853 5852 5850 5848 5845 5843 5841 5839 5837 5835 5832 5830 5827 5825 5822 5820
5883 5883 5882 5882 5881 5881 5880 5879 5878 5877 5876 5875 5874 5873 5871 5870 5869 5867 5866 5864 5862 5860 5858 5856 5855 5853 5851 5849 5847 5845 5844 5841 5839 5837 5835 5832 5830 5828 5825 5823 5820 5818 5816
5878 5878 5878 5878 5877 5877 5876 5875 5874 5873 5872 5871 5870 5869 5868 5867 5865 5864 5862 5860 5858 5856 5855 5853 5850 5848 5847 5845 5843 5841 5839 5837 5835 5833 5830 5828 5825 5823 5820 5818 5815 5813 5810
5873 5873 5873 5873 5873 5872 5871 5871 5870 5869 5868 5867 5866 5865 5864 5862 5861 5859 5858 5856 5854 5852 5850 5848 5846 5844 5842 5840 5838 5836 5834 5832 5830 5827 5825 5823 5820 5817 5815 5813 5810 5807 5804
5867 5867 5867 5867 5867 5867 5866 5865 5865 5864 5863 5862 5861 5860 5859 5858 5856 5855 5853 5851 5849 5848 5846 5844 5842 5840 5838 5835 5833 5831 5828 5826 5824 5822 5819 5817 5814 5812 5809 5807 5804 5801 5798
5861 5861 5861 5861 5861 5861 5860 5860 5859 5858 5857 5856 5855 5854 5853 5852 5851 5849 5848 5846 5844 5843 5841 5839 5837 5835 5833 5830 5828 5825 5823 5820 5817 5815 5813 5811 5808 5805 5803 5800 5797 5795 5792
5853 5854 5854 5854 5854 5854 5853 5853 5853 5852 5851 5850 5849 5848 5848 5847 5845 5844 5842 5841 5839 5837 5835 5833 5831 5829 5827 5824 5822 5819 5816 5813 5811 5808 5806 5804 5801 5799 5796 5793 5791 5788 5785
5845 5846 5846 5846 5846 5846 5846 5846 5846 5845 5845 5844 5843 5842 5841 5840 5839 5838 5836 5835 5833 5831 5829 5827 5825 5823 5821 5818 5815 5812 5809 5806 5804 5801 5799 5796 5794 5791 5789 5786 5783 5780 5778
5836 5837 5837 5838 5838 5838 5838 5838 5838 5838 5837 5836 5836 5836 5835 5833 5832 5831 5830 5828 5826 5824 5822 5820 5818 5816 5814 5811 5808 5805 5802 5799 5797 5794 5791 5789 5786 5784 5781 5778 5775 5773 5770
5827 5828 5828 5829 5830 5830 5830 5830 5830 5830 5829 5829 5828 5827 5827 5826 5825 5824 5822 5820 5819 5817 5815 5813 5810 5808 5806 5803 5800 5798 5795 5792 5789 5786 5783 5780 5778 5775 5773 5770 5768 5765 5762
5817 5818 5819 5820 5820 5821 5821 5822 5821 5822 5821 5821 5820 5819 5818 5818 5817 5816 5814 5813 5811 5809 5806 5804 5802 5800 5798 5795 5792 5789 5786 5783 5780 5777 5774 5772 5769 5767 5764 5762 5759 5756 5754
5806 5807 5809 5810 5811 5812 5812 5813 5813 5813 5812 5812 5811 5811 5810 5809 5808 5807 5806 5804 5801 5799 5797 5795 5793 5791 5789 5786 5784 5781 5778 5774 5771 5768 5765 5763 5760 5758 5755 5752 5750 5747 5745
5795 5797 5799 5800 5801 5802 5803 5803 5803 5803 5803 5802 5802 5801 5800 5799 5798 5797 5796 5794 5792 5790 5788 5786 5784 5782 5780 5777 5774 5771 5768 5765 5762 5759 5756 5753 5751 5748 5745 5743 5741 5738 5736
5785 5786 5788 5789 5790 5791 5792 5792 5792 5792 5793 5792 5792 5791 5790 5789 5788 5787 5786 5784 5782 5780 5778 5776 5774 5772 5769 5767 5764 5761 5758 5755 5752 5749 5746 5744 5741 5738 5736 5734 5731 5729 5727
5774 5775 5777 5778 5779 5780 5781 5781 5781 5782 5782 5782 5782 5781 5780 5779 5778 5776 5774 5773 5772 5770 5768 5766 5764 5761 5759 5756 5753 5751 5747 5744 5742 5739 5736 5734 5732 5729 5727 5724 5722 5720 5717
5763 5764 5765 5766 5768 5769 5769 5770 5770 5771 5772 5772 5772 5771 5770 5768 5767 5765 5763 5762 5761 5759 5758 5755 5753 5751 5748 5745 5742 5740 5737 5734 5731 5729 5726 5724 5722 5720 5717 5715 5712 5710 5708
5751 5753 5754 5755 5756 5757 5758 5759 5760 5760 5761 5761 5760 5760 5759 5757 5756 5754 5752 5750 5750 5749 5747 5745 5742 5740 5737 5734 5731 5728 5726 5723 5721 5718 5716 5714 5712 5710 5708 5705 5703 5701 5699
5740 5742 5743 5745 5746 5747 5747 5748 5749 5749 5749 5749 5749 5748 5747 5746 5745 5744 5742 5741 5739 5738 5736 5734 5731 5729 5726 5723 5720 5718 5715 5713 5710 5708 5706 5704 5702 5700 5698 5696 5694 5692 5690
5730 5731 5732 5734 5735 5736 5737 5737 5738 5739 5738 5738 5738 5737 5736 5735 5734 5733 5732 5730 5728 5726 5724 5722 5720 5717 5715 5712 5709 5706 5704 5702 5700 5698 5696 5694 5693 5691 5689 5687 5685 5683 5681
5720 5721 5722 5723 5724 5725 5726 5726 5727 5727 5727 5727 5726 5726 5726 5725 5723 5722 5721 5719 5717 5715 5713 5711 5708 5706 5704 5701 5699 5696 5694 5692 5690 5688 5686 5684 5683 5681 5680 5678 5676 5675 5673
5711 5712 5713 5714 5714 5715 5716 5716 5716 5716 5716 5716 5715 5715 5715 5713 5712 5711 5710 5708 5706 5704 5702 5700 5697 5695 5693 5691 5688 5686 5684 5682 5680 5678 5676 5674 5673 5672 5670 5669 5667 5666 5664
5703 5703 5704 5704 5704 5705 5705 5706 5706 5705 5705 5705 5705 5704 5703 5702 5701 5700 5699 5697 5695 5693 5691 5689 5686 5684 5682 5680 5678 5676 5674 5672 5671 5669 5667 5665 5664 5663 5662 5660 5659 5657 5656